Losuia Airport


Codes: AYKA/LSA
Name: Losuia Airport
City: Losuia
Country: Papua New Guinea
Elevation: 27 ft.
Wikipedia:

Photos at Losuia Airport


   Photos courtesy of SpottingLog. You can add your own sightings and photos by signing up for a free trial today.



No photos found.

Weather at Losuia Airport


Time (UTC)DescriptionTempratureWindCloud coverageVisibilityPressureHumidity
21-Feb-2024 03:00Moderate Rain27°C9 mph, W100%10000m1008hPa83%
21-Feb-2024 06:00Moderate Rain27°C13 mph, NW99%5301m1008hPa83%
21-Feb-2024 09:00Moderate Rain28°C16 mph, NW100%5064m1009hPa83%
21-Feb-2024 12:00Moderate Rain28°C13 mph, NW100%4832m1010hPa83%
21-Feb-2024 15:00Moderate Rain28°C13 mph, NW100%4199m1008hPa85%
21-Feb-2024 18:00Moderate Rain28°C11 mph, W100%10000m1008hPa81%
21-Feb-2024 21:00Light Rain28°C13 mph, NW100%10000m1010hPa80%
22-Feb-2024 00:00Moderate Rain27°C20 mph, NW100%5199m1011hPa85%
22-Feb-2024 03:00Moderate Rain27°C18 mph, NW100%4276m1009hPa88%
22-Feb-2024 06:00Heavy Intensity Rain26°C18 mph, NW100%4582m1008hPa90%
22-Feb-2024 09:00Moderate Rain27°C20 mph, NW100%6507m1010hPa87%
22-Feb-2024 12:00Moderate Rain27°C18 mph, NW100%10000m1011hPa86%
22-Feb-2024 15:00Light Rain27°C18 mph, W100%10000m1009hPa86%
22-Feb-2024 18:00Light Rain27°C16 mph, W100%10000m1009hPa85%
22-Feb-2024 21:00Moderate Rain27°C16 mph, W100%10000m1010hPa88%
23-Feb-2024 00:00Light Rain27°C11 mph, W100%10000m1010hPa82%
23-Feb-2024 03:00Light Rain28°C9 mph, W100%10000m1008hPa79%
23-Feb-2024 06:00Light Rain28°C11 mph, W100%10000m1007hPa77%
23-Feb-2024 09:00Light Rain28°C7 mph, W94%10000m1009hPa77%
23-Feb-2024 12:00Moderate Rain28°C4 mph, NW97%10000m1011hPa75%
23-Feb-2024 15:00Light Rain28°C4 mph, NW100%10000m1008hPa73%
23-Feb-2024 18:00Light Rain28°C9 mph, NW92%10000m1008hPa74%
23-Feb-2024 21:00Light Rain28°C11 mph, NW70%10000m1009hPa77%
24-Feb-2024 00:00Light Rain29°C11 mph, W49%10000m1010hPa75%
24-Feb-2024 03:00Light Rain28°C13 mph, NW17%10000m1008hPa77%
24-Feb-2024 06:00Few Clouds29°C11 mph, NW16%10000m1006hPa75%
24-Feb-2024 09:00Few Clouds29°C9 mph, NW20%10000m1008hPa75%
24-Feb-2024 12:00Scattered Clouds29°C9 mph, N48%10000m1010hPa77%
24-Feb-2024 15:00Light Rain28°C7 mph, NE86%10000m1008hPa74%
24-Feb-2024 18:00Light Rain28°C7 mph, NE93%10000m1007hPa78%
24-Feb-2024 21:00Moderate Rain28°C4 mph, N59%10000m1009hPa79%
25-Feb-2024 00:00Light Rain28°C4 mph, NW64%10000m1010hPa74%
25-Feb-2024 03:00Light Rain28°C7 mph, NW52%7058m1007hPa75%
25-Feb-2024 06:00Light Rain29°C9 mph, NW54%10000m1006hPa72%
25-Feb-2024 09:00Light Rain28°C7 mph, NW93%10000m1008hPa76%
25-Feb-2024 12:00Light Rain28°C7 mph, NW97%10000m1009hPa77%
25-Feb-2024 15:00Light Rain27°C7 mph, N100%10000m1007hPa82%
25-Feb-2024 18:00Moderate Rain28°C9 mph, N100%10000m1007hPa78%
25-Feb-2024 21:00Moderate Rain28°C9 mph, N100%10000m1009hPa79%
26-Feb-2024 00:00Light Rain28°C13 mph, NW100%10000m1010hPa78%